This is the latest recevied weather packets stored in our database for station/object W4DEX-2. If no packets are shown the sender has not sent any weather packets the latest 10 day(s).
| Time | Temp. | Humidity | Pressure | Rain* | Wind** | Luminosity | Snow |
|---|---|---|---|---|---|---|---|
| 1777707602 | 11.11° C | 82% | 1010.8 hPa | 0 mm | 4.92 m/s, 179° | - | - |
| 1777707302 | 11.11° C | 82% | 1010.9 hPa | 0 mm | 5.36 m/s, 173° | - | - |
| 1777706402 | 11.11° C | 82% | 1010.8 hPa | 0 mm | 5.36 m/s, 174° | - | - |
| 1777706102 | 11.11° C | 82% | 1010.9 hPa | 0 mm | 5.36 m/s, 175° | - | - |
| 1777705803 | 11.11° C | 82% | 1010.8 hPa | 0 mm | 4.92 m/s, 177° | - | - |
| 1777705502 | 11.11° C | 82% | 1010.9 hPa | 0 mm | 5.36 m/s, 177° | - | - |
| 1777704902 | 11.11° C | 82% | 1010.8 hPa | 0 mm | 4.92 m/s, 175° | - | - |
| 1777704603 | 11.11° C | 82% | 1010.9 hPa | 0 mm | 4.92 m/s, 175° | - | - |
| 1777704303 | 11.11° C | 82% | 1010.9 hPa | 0 mm | 5.36 m/s, 173° | - | - |
| 1777704003 | 11.11° C | 82% | 1011 hPa | 0 mm | 4.92 m/s, 173° | - | - |
| 1777703702 | 11.11° C | 82% | 1011.1 hPa | 0 mm | 4.92 m/s, 175° | - | - |
| 1777703402 | 11.11° C | 82% | 1011.1 hPa | 0 mm | 5.36 m/s, 172° | - | - |
| 1777703102 | 11.11° C | 82% | 1011.3 hPa | 0 mm | 4.92 m/s, 173° | - | - |
| 1777702803 | 11.11° C | 81% | 1011.2 hPa | 0 mm | 4.92 m/s, 174° | - | - |
| 1777702502 | 11.67° C | 81% | 1011.5 hPa | 0 mm | 4.92 m/s, 172° | - | - |
| 1777701902 | 11.11° C | 81% | 1011.6 hPa | 0 mm | 4.92 m/s, 172° | - | - |
| 1777701602 | 11.11° C | 81% | 1011.6 hPa | 0 mm | 4.92 m/s, 173° | - | - |
| 1777701003 | 11.11° C | 81% | 1011.7 hPa | 0 mm | 5.36 m/s, 175° | - | - |
| 1777700703 | 11.11° C | 82% | 1011.6 hPa | 0 mm | 4.92 m/s, 178° | - | - |
| 1777700403 | 11.11° C | 82% | 1011.6 hPa | 0 mm | 4.92 m/s, 176° | - | - |
| 1777700102 | 11.11° C | 82% | 1011.7 hPa | 0 mm | 4.92 m/s, 175° | - | - |
| 1777699802 | 11.11° C | 82% | 1011.7 hPa | 0 mm | 4.92 m/s, 175° | - | - |
| 1777699503 | 11.67° C | 82% | 1011.7 hPa | 0 mm | 4.92 m/s, 173° | - | - |
| 1777698902 | 11.67° C | 82% | 1011.8 hPa | 0 mm | 5.36 m/s, 175° | - | - |
| 1777698602 | 11.67° C | 82% | 1011.8 hPa | 0 mm | 4.92 m/s, 176° | - | - |
* Rain latest hour (hover to see other rain measurements)
** Current wind speed in m/s (hover to see current wind gust speed)